Torna al catalogo

COSMOS 1506

AttivoMilitarePO
NORAD 14450·PAYLOAD·🇷🇺 Russia

Lanciato Oct 26, 1983 da Plesetsk Cosmodrome

Loading…

Prossimi Passaggi (prossime 24 ore)

TLE

AggiornatoSource: Space-Track

Epoca: Sep 14, 2026, 15:37 UTC

1 14450U 83108A   26257.65089206  .00000058  00000-0  42475-4 0  9991
2 14450  82.9319 205.0002 0044167 110.3512  63.6193 13.76547866969962

Traccia COSMOS 1506 in tempo reale con AllMySat

Download on the App Store